Location: Clanezzo
(45.7500°N, 9.6000°E)
Time: 03:07:38
(UTC+00:00)

Meteor 2-9 Rocket - Pass Details

Date: 12 May 2021
Orbit: 791 x 895 km, 81.3° (Epoch: 18 June)

Event Time Altitude Azimuth Distance (km) Brightness Sun altitude
Rises 22:05:18 0° 349° (N) 3,498 8.8 -23.8°
Reaches altitude 10° 22:07:47 10° 350° (N) 2,543 7.8 -23.9°
Maximum altitude 22:13:36 86° 81° (E) 871 4.1 -24.2°
Enters shadow 22:14:39 61° 163° (SSE) 970 4.1 -24.3°
